QPF
0.00 0.01 0.00 0.00 0.00 0.00 0.00 0.00 0.00 0.00 0.00 0.00 0.00 0.00 0.00 0.00 0.00 0.00 0.00 0.00 0.00 0.00 0.00 0.00 0.00 0.00 0.00 0.08 0.08 0.09 0.09 0.07 0.02 0.02 0.05 0.06 0.01 0.00 0.00 0.08 0.18 0.17 0.10
0.00 0.00 0.00 0.00 0.00 0.00 0.00 0.00 0.00 0.00 0.00 0.00 0.00 0.00 0.00 0.00 0.00 0.00 0.00 0.00 0.00 0.00 0.00 0.00 0.00 0.03 0.10 0.11 0.06 0.12 0.19 0.16 0.12 0.15 0.08 0.02 0.00 0.01 0.07 0.06 0.14 0.23 0.22
0.00 0.00 0.00 0.00 0.00 0.00 0.00 0.00 0.00 0.00 0.00 0.00 0.00 0.00 0.00 0.00 0.00 0.00 0.00 0.00 0.00 0.00 0.00 0.00 0.02 0.11 0.15 0.11 0.06 0.09 0.14 0.05 0.11 0.08 0.09 0.01 0.00 0.00 0.06 0.09 0.13 0.11 0.17
0.00 0.00 0.00 0.00 0.00 0.00 0.00 0.00 0.00 0.00 0.00 0.00 0.00 0.00 0.00 0.00 0.00 0.00 0.00 0.00 0.00 0.00 0.01 0.03 0.10 0.12 0.05 0.05 0.02 0.02 0.03 0.01 0.00 0.00 0.00 0.00 0.00 0.00 0.09 0.19 0.09 0.10 0.13
0.00 0.00 0.00 0.00 0.00 0.00 0.00 0.00 0.00 0.00 0.00 0.00 0.00 0.00 0.00 0.00 0.00 0.00 0.00 0.00 0.01 0.06 0.13 0.07 0.06 0.05 0.08 0.03 0.01 0.02 0.05 0.01 0.00 0.00 0.00 0.00 0.00 0.00 0.07 0.17 0.09 0.06 0.06
0.00 0.00 0.00 0.00 0.00 0.00 0.00 0.00 0.00 0.00 0.00 0.00 0.00 0.00 0.00 0.00 0.00 0.00 0.00 0.00 0.02 0.07 0.09 0.07 0.06 0.07 0.11 0.04 0.00 0.03 0.07 0.04 0.00 0.00 0.00 0.00 0.00 0.00 0.04 0.01 0.04 0.02 0.07
0.00 0.00 0.00 0.00 0.00 0.00 0.00 0.00 0.00 0.00 0.00 0.00 0.00 0.00 0.00 0.00 0.00 0.00 0.00 0.00 0.00 0.03 0.07 0.07 0.11 0.09 0.06 0.02 0.00 0.01 0.10 0.05 0.00 0.00 0.00 0.00 0.00 0.01 0.02 0.00 0.01 0.01 0.01
0.00 0.00 0.00 0.00 0.00 0.00 0.00 0.00 0.00 0.00 0.00 0.00 0.00 0.00 0.00 0.00 0.00 0.00 0.00 0.01 0.05 0.03 0.04 0.07 0.09 0.07 0.01 0.00 0.00 0.00 0.05 0.00 0.00 0.00 0.00 0.00 0.00 0.00 0.03 0.00 0.00 0.00 0.00
0.00 0.00 0.00 0.00 0.00 0.00 0.00 0.00 0.00 0.00 0.00 0.00 0.00 0.00 0.00 0.00 0.00 0.00 0.03 0.04 0.06 0.04 0.04 0.07 0.04 0.05 0.02 0.01 0.01 0.00 0.00 0.00 0.00 0.00 0.00 0.00 0.00 0.01 0.03 0.01 0.01 0.01 0.01
0.00 0.00 0.00 0.00 0.00 0.00 0.00 0.00 0.00 0.00 0.00 0.00 0.00 0.00 0.00 0.00 0.00 0.00 0.03 0.01 0.03 0.04 0.02 0.04 0.01 0.00 0.00 0.00 0.00 0.00 0.00 0.00 0.00 0.00 0.00 0.00 0.01 0.00 0.01 0.00 0.00 0.01 0.05
0.00 0.00 0.00 0.00 0.00 0.00 0.00 0.00 0.00 0.00 0.00 0.00 0.00 0.00 0.00 0.00 0.00 0.00 0.00 0.02 0.04 0.02 0.01 0.00 0.00 0.00 0.00 0.00 0.00 0.00 0.00 0.00 0.00 0.00 0.00 0.01 0.02 0.01 0.01 0.04 0.01 0.01 0.03
0.00 0.00 0.00 0.00 0.00 0.00 0.00 0.00 0.00 0.00 0.00 0.00 0.00 0.00 0.00 0.00 0.00 0.00 0.00 0.00 0.00 0.00 0.00 0.00 0.00 0.00 0.00 0.00 0.00 0.00 0.00 0.00 0.00 0.00 0.01 0.04 0.04 0.02 0.03 0.04 0.03 0.03 0.03
0.00 0.00 0.00 0.00 0.00 0.00 0.00 0.00 0.00 0.00 0.00 0.00 0.00 0.00 0.00 0.00 0.00 0.00 0.00 0.00 0.00 0.00 0.00 0.00 0.00 0.00 0.00 0.00 0.00 0.00 0.00 0.00 0.00 0.00 0.04 0.05 0.06 0.02 0.03 0.03 0.04 0.03 0.03
0.00 0.00 0.00 0.00 0.00 0.00 0.00 0.00 0.00 0.00 0.01 0.00 0.00 0.00 0.00 0.00 0.00 0.00 0.00 0.00 0.00 0.00 0.00 0.00 0.00 0.00 0.00 0.00 0.00 0.00 0.00 0.00 0.00 0.00 0.02 0.07 0.04 0.02 0.05 0.04 0.04 0.03 0.03
0.00 0.00 0.00 0.00 0.00 0.00 0.00 0.00 0.00 0.00 0.01 0.00 0.00 0.00 0.00 0.00 0.00 0.00 0.00 0.00 0.00 0.00 0.00 0.00 0.00 0.00 0.00 0.00 0.00 0.00 0.00 0.00 0.00 0.00 0.00 0.01 0.04 0.02 0.02 0.03 0.04 0.06 0.06
0.00 0.00 0.00 0.00 0.00 0.00 0.00 0.00 0.00 0.00 0.01 0.00 0.00 0.00 0.00 0.00 0.00 0.00 0.00 0.00 0.00 0.00 0.00 0.01 0.00 0.00 0.01 0.00 0.00 0.00 0.00 0.00 0.00 0.00 0.00 0.00 0.00 0.01 0.00 0.01 0.02 0.02 0.01
0.00 0.00 0.00 0.00 0.00 0.00 0.00 0.00 0.00 0.00 0.00 0.00 0.00 0.02 0.00 0.00 0.00 0.00 0.00 0.00 0.00 0.00 0.00 0.00 0.00 0.00 0.01 0.02 0.00 0.00 0.00 0.00 0.00 0.00 0.00 0.00 0.00 0.00 0.01 0.01 0.00 0.01 0.01
0.00 0.00 0.00 0.00 0.00 0.00 0.00 0.00 0.00 0.00 0.00 0.00 0.00 0.00 0.00 0.00 0.00 0.00 0.00 0.00 0.00 0.00 0.00 0.00 0.00 0.01 0.01 0.02 0.01 0.00 0.00 0.00 0.00 0.00 0.00 0.00 0.00 0.00 0.00 0.00 0.00 0.00 0.00
0.00 0.00 0.00 0.00 0.00 0.00 0.00 0.00 0.00 0.00 0.00 0.00 0.00 0.00 0.00 0.00 0.00 0.00 0.00 0.00 0.00 0.00 0.00 0.00 0.00 0.02 0.01 0.00 0.04 0.01 0.00 0.00 0.00 0.00 0.00 0.00 0.00 0.00 0.00 0.00 0.00 0.00 0.00
0.00 0.00 0.00 0.00 0.00 0.00 0.00 0.00 0.00 0.00 0.00 0.00 0.00 0.00 0.00 0.00 0.00 0.00 0.00 0.00 0.00 0.00 0.00 0.00 0.01 0.01 0.00 0.00 0.00 0.00 0.00 0.00 0.00 0.00 0.00 0.00 0.00 0.00 0.00 0.00 0.00 0.00 0.00
0.00 0.00 0.00 0.00 0.00 0.00 0.00 0.00 0.00 0.00 0.00 0.00 0.00 0.00 0.00 0.00 0.00 0.00 0.00 0.00 0.00 0.00 0.00 0.00 0.00 0.05 0.05 0.01 0.00 0.00 0.00 0.00 0.00 0.00 0.00 0.00 0.00 0.00 0.00 0.00 0.00 0.00 0.00
0.00 0.00 0.00 0.00 0.00 0.00 0.00 0.00 0.00 0.00 0.00 0.00 0.00 0.00 0.00 0.00 0.00 0.01 0.00 0.00 0.00 0.05 0.00 0.00 0.00 0.05 0.04 0.01 0.00 0.00 0.00 0.00 0.00 0.00 0.00 0.00 0.00 0.00 0.00 0.00 0.00 0.00 0.00
0.00 0.00 0.00 0.00 0.00 0.00 0.00 0.00 0.00 0.00 0.00 0.00 0.00 0.00 0.00 0.00 0.00 0.05 0.01 0.00 0.00 0.03 0.00 0.00 0.00 0.00 0.01 0.02 0.00 0.00 0.00 0.00 0.00 0.00 0.00 0.00 0.00 0.00 0.00 0.00 0.00 0.00 0.00
0.00 0.00 0.00 0.00 0.01 0.00 0.00 0.00 0.00 0.00 0.00 0.00 0.00 0.00 0.00 0.00 0.00 0.00 0.03 0.04 0.01 0.00 0.00 0.00 0.00 0.00 0.00 0.01 0.01 0.01 0.01 0.00 0.00 0.00 0.00 0.00 0.00 0.00 0.00 0.00 0.00 0.00 0.00
0.00 0.00 0.00 0.00 0.00 0.00 0.00 0.00 0.00 0.00 0.00 0.00 0.00 0.00 0.00 0.00 0.00 0.00 0.00 0.01 0.00 0.01 0.00 0.00 0.00 0.00 0.00 0.00 0.03 0.07 0.01 0.00 0.00 0.00 0.00 0.00 0.00 0.00 0.00 0.00 0.00 0.00 0.00
0.00 0.00 0.00 0.00 0.00 0.00 0.00 0.00 0.00 0.00 0.00 0.00 0.00 0.00 0.00 0.00 0.00 0.00 0.00 0.00 0.00 0.00 0.00 0.00 0.00 0.00 0.00 0.00 0.01 0.10 0.05 0.00 0.00 0.00 0.00 0.00 0.00 0.00 0.00 0.00 0.00 0.00 0.00
MSLP
1014.83 1014.74 1014.93 1015.08 1015.09 1014.94 1014.76 1014.78 1014.92 1015.06 1015.15 1015.19 1015.08 1015.05 1015.00 1015.05 1015.07 1015.07 1015.02 1014.93 1014.82 1014.72 1014.59 1014.52 1014.37 1014.15 1013.95 1013.77 1013.58 1013.41 1013.20 1013.24 1013.43 1013.34 1013.63 1013.87 1013.84 1013.95 1013.80 1013.83 1014.03 1014.13 1014.15
1014.35 1014.82 1015.11 1015.19 1015.32 1015.29 1015.24 1015.18 1015.13 1015.27 1015.40 1015.46 1015.31 1015.15 1015.15 1015.27 1015.26 1015.19 1015.06 1015.02 1015.08 1014.94 1014.73 1014.63 1014.32 1014.11 1013.88 1013.63 1013.37 1013.45 1013.45 1013.33 1013.34 1013.45 1013.78 1014.03 1014.03 1014.22 1014.15 1014.11 1014.50 1014.39 1014.41
1014.64 1014.87 1015.25 1015.43 1015.53 1015.57 1015.51 1015.56 1015.57 1015.53 1015.51 1015.56 1015.56 1015.42 1015.40 1015.40 1015.35 1015.21 1015.19 1015.21 1015.24 1014.99 1014.84 1014.53 1014.20 1013.99 1013.66 1013.37 1013.40 1013.38 1013.42 1013.43 1013.40 1013.35 1013.80 1014.36 1014.40 1014.27 1014.39 1014.50 1014.89 1014.80 1014.97
1014.62 1015.07 1015.43 1015.60 1015.77 1015.87 1015.82 1015.80 1015.85 1015.84 1015.82 1015.71 1015.67 1015.72 1015.69 1015.55 1015.45 1015.36 1015.30 1015.37 1015.20 1014.92 1014.68 1014.33 1014.22 1014.03 1013.72 1013.32 1013.24 1013.25 1013.34 1013.48 1013.64 1013.68 1014.24 1014.45 1014.57 1014.47 1014.55 1014.64 1014.84 1015.16 1015.47
1014.71 1015.26 1015.52 1015.67 1015.85 1016.02 1016.11 1016.12 1016.11 1016.10 1016.07 1015.99 1015.83 1015.79 1015.85 1015.66 1015.55 1015.48 1015.39 1015.42 1015.08 1014.84 1014.62 1014.32 1014.16 1013.96 1013.79 1013.44 1013.22 1013.15 1013.42 1013.71 1013.78 1013.94 1014.31 1014.56 1014.78 1014.60 1014.66 1014.61 1014.86 1015.21 1015.24
1014.94 1015.24 1015.41 1015.74 1015.86 1015.94 1016.08 1016.27 1016.33 1016.37 1016.30 1016.15 1016.05 1015.98 1015.90 1015.72 1015.68 1015.63 1015.51 1015.30 1014.95 1014.71 1014.49 1014.25 1014.07 1013.89 1013.78 1013.60 1013.43 1013.35 1013.69 1014.00 1014.19 1014.40 1014.50 1014.49 1014.71 1014.73 1014.62 1014.64 1014.89 1015.08 1015.34
1015.18 1015.36 1015.51 1015.76 1016.03 1016.25 1016.36 1016.36 1016.41 1016.40 1016.39 1016.31 1016.22 1016.12 1015.97 1015.83 1015.75 1015.62 1015.48 1015.19 1014.78 1014.52 1014.42 1014.30 1014.11 1013.92 1013.99 1013.94 1013.71 1013.65 1013.98 1014.23 1014.47 1014.52 1014.57 1014.62 1014.70 1014.56 1014.59 1014.78 1014.93 1015.13 1015.34
1015.33 1015.51 1015.73 1015.93 1016.13 1016.23 1016.44 1016.55 1016.56 1016.55 1016.51 1016.50 1016.42 1016.20 1015.99 1015.91 1015.73 1015.57 1015.40 1015.09 1014.74 1014.33 1014.37 1014.31 1014.19 1014.12 1014.24 1014.18 1014.10 1014.11 1014.22 1014.30 1014.52 1014.62 1014.61 1014.66 1014.71 1014.63 1014.67 1014.83 1015.01 1015.29 1015.51
1015.58 1015.82 1015.97 1016.14 1016.25 1016.43 1016.48 1016.56 1016.58 1016.61 1016.59 1016.56 1016.45 1016.26 1016.11 1015.90 1015.65 1015.29 1015.02 1015.03 1014.75 1014.18 1014.08 1014.17 1014.20 1014.49 1014.58 1014.55 1014.52 1014.53 1014.52 1014.56 1014.70 1014.72 1014.70 1014.84 1014.78 1014.76 1014.80 1014.94 1015.09 1015.29 1015.46
1015.90 1015.97 1016.13 1016.29 1016.41 1016.60 1016.69 1016.71 1016.76 1016.70 1016.66 1016.66 1016.54 1016.27 1016.12 1015.94 1015.70 1015.39 1015.22 1015.07 1014.76 1014.15 1013.96 1014.27 1014.47 1014.72 1014.90 1015.04 1015.10 1015.06 1014.96 1014.84 1014.96 1014.99 1014.94 1014.98 1015.01 1015.00 1015.01 1015.17 1015.26 1015.43 1015.68
1016.15 1016.22 1016.21 1016.40 1016.57 1016.78 1016.86 1016.89 1016.85 1016.84 1016.69 1016.60 1016.65 1016.47 1016.26 1016.04 1015.79 1015.51 1015.31 1015.29 1015.03 1014.55 1014.26 1014.52 1014.69 1014.90 1015.08 1015.35 1015.43 1015.48 1015.45 1015.39 1015.36 1015.26 1015.18 1015.14 1015.10 1015.22 1015.30 1015.40 1015.58 1015.69 1015.87
1016.08 1016.22 1016.39 1016.42 1016.63 1016.85 1016.86 1016.97 1017.14 1017.18 1017.03 1016.82 1016.85 1016.58 1016.33 1016.09 1015.86 1015.55 1015.47 1015.44 1015.32 1015.16 1014.91 1014.78 1014.93 1015.17 1015.37 1015.79 1016.01 1016.04 1016.10 1015.97 1015.80 1015.69 1015.70 1015.56 1015.45 1015.40 1015.56 1015.64 1015.73 1015.90 1015.92
1015.81 1016.12 1016.29 1016.38 1016.61 1016.80 1016.88 1017.03 1017.26 1017.39 1017.31 1017.05 1016.92 1016.65 1016.34 1016.27 1016.01 1015.91 1015.69 1015.69 1015.65 1015.30 1015.45 1015.36 1015.34 1015.64 1015.85 1016.23 1016.53 1016.63 1016.45 1016.42 1016.31 1016.26 1016.22 1016.05 1015.97 1015.85 1015.93 1016.00 1016.09 1016.03 1016.14
1015.75 1015.98 1016.17 1016.17 1016.49 1016.75 1016.87 1016.99 1017.15 1017.32 1017.29 1017.14 1017.02 1016.82 1016.52 1016.49 1016.35 1016.25 1016.02 1015.90 1015.74 1015.70 1015.68 1015.75 1015.74 1016.03 1016.29 1016.59 1016.87 1017.04 1016.86 1016.87 1016.76 1016.81 1016.75 1016.63 1016.60 1016.46 1016.52 1016.53 1016.52 1016.50 1016.55
1015.46 1015.68 1015.94 1016.10 1016.39 1016.49 1016.77 1016.90 1017.15 1017.32 1017.29 1017.23 1017.20 1017.00 1016.77 1016.56 1016.63 1016.53 1016.32 1016.16 1016.00 1015.94 1015.97 1016.05 1016.11 1016.34 1016.63 1016.96 1017.26 1017.34 1017.43 1017.50 1017.51 1017.35 1017.19 1017.09 1017.07 1017.11 1017.00 1017.04 1017.01 1017.09 1017.06
1014.88 1015.19 1015.58 1015.93 1015.97 1016.16 1016.51 1016.72 1017.03 1017.17 1017.20 1017.21 1017.27 1017.17 1016.99 1016.83 1016.82 1016.78 1016.59 1016.50 1016.35 1016.37 1016.24 1016.29 1016.53 1016.58 1017.10 1017.30 1017.53 1017.73 1017.94 1017.97 1018.15 1017.94 1017.83 1017.75 1017.62 1017.61 1017.56 1017.52 1017.45 1017.43 1017.46
1014.28 1014.72 1015.19 1015.58 1015.74 1016.08 1016.27 1016.40 1016.78 1016.94 1017.14 1017.19 1017.21 1017.10 1017.11 1017.05 1017.08 1016.91 1016.86 1016.77 1016.58 1016.50 1016.68 1016.61 1016.87 1016.90 1017.41 1017.79 1018.21 1018.08 1018.25 1018.31 1018.54 1018.62 1018.52 1018.58 1018.50 1018.22 1018.27 1018.13 1018.13 1018.14 1018.11
1013.92 1014.44 1015.01 1015.41 1015.74 1016.05 1016.18 1016.27 1016.58 1016.82 1016.97 1017.07 1017.16 1017.07 1017.14 1017.21 1017.17 1017.12 1017.09 1017.01 1016.87 1016.74 1016.84 1017.13 1017.27 1017.70 1018.02 1018.32 1018.50 1018.77 1018.72 1018.80 1018.79 1019.13 1019.23 1019.28 1019.17 1019.16 1018.97 1018.78 1018.67 1018.65 1018.66
1013.29 1014.05 1014.69 1015.16 1015.58 1015.98 1016.14 1016.27 1016.50 1016.66 1016.92 1016.94 1017.04 1017.11 1017.08 1017.05 1017.16 1017.14 1017.27 1017.21 1017.11 1017.12 1017.13 1017.59 1017.79 1017.91 1018.38 1018.71 1018.83 1019.09 1019.28 1019.45 1019.27 1019.45 1019.71 1019.82 1019.91 1019.97 1019.97 1019.59 1019.34 1019.19 1019.16
1012.77 1013.63 1014.27 1014.83 1015.37 1015.87 1016.33 1016.68 1016.75 1016.93 1016.82 1016.95 1016.92 1016.99 1017.09 1016.92 1017.18 1017.18 1017.30 1017.35 1017.22 1017.47 1017.59 1017.73 1018.14 1018.41 1018.65 1018.85 1019.15 1019.54 1019.65 1019.82 1019.75 1020.05 1020.22 1020.37 1020.67 1020.51 1020.50 1020.48 1020.43 1020.19 1019.82
1012.69 1013.36 1013.92 1014.47 1015.04 1015.72 1016.25 1016.71 1016.97 1017.03 1016.90 1016.97 1016.82 1016.79 1016.91 1016.91 1017.10 1017.13 1017.22 1017.25 1017.30 1017.53 1017.89 1018.00 1018.51 1018.71 1019.15 1019.16 1019.48 1020.01 1020.30 1020.44 1020.56 1020.89 1020.85 1021.01 1021.32 1021.18 1021.05 1021.23 1021.11 1021.01 1020.77
1012.03 1012.79 1013.54 1013.99 1014.64 1015.17 1015.71 1016.08 1016.39 1016.43 1016.52 1016.54 1016.62 1016.75 1016.89 1016.88 1017.01 1017.12 1017.23 1017.44 1017.38 1017.77 1018.07 1018.37 1018.48 1019.09 1019.28 1019.30 1019.84 1020.15 1020.78 1021.17 1021.28 1021.64 1021.69 1021.83 1021.99 1021.71 1021.71 1021.78 1021.66 1021.64 1021.52
1011.30 1012.13 1012.84 1013.48 1014.14 1014.67 1015.25 1015.86 1016.30 1016.49 1016.51 1016.60 1016.82 1016.86 1016.82 1016.88 1016.89 1017.12 1017.19 1017.34 1017.51 1017.82 1018.11 1018.43 1018.58 1018.82 1019.34 1019.40 1019.41 1019.54 1020.45 1021.01 1021.48 1022.08 1022.34 1022.56 1022.65 1022.63 1022.47 1022.25 1022.22 1022.13 1022.13
1010.51 1011.36 1012.18 1012.93 1013.70 1014.22 1014.80 1015.49 1015.86 1016.06 1016.35 1016.24 1016.36 1016.54 1016.67 1016.71 1016.77 1016.86 1017.07 1017.32 1017.41 1017.65 1018.02 1018.29 1018.55 1018.72 1019.07 1019.42 1019.52 1019.47 1019.42 1019.91 1021.04 1022.41 1022.88 1023.13 1023.27 1023.31 1023.12 1022.72 1022.81 1022.50 1022.56
1010.17 1010.73 1011.44 1012.40 1013.10 1013.63 1014.26 1014.75 1015.25 1015.71 1015.92 1015.85 1016.18 1016.52 1016.72 1016.79 1016.77 1016.82 1016.95 1017.19 1017.40 1017.58 1017.90 1018.15 1018.44 1018.62 1018.77 1019.04 1019.08 1019.38 1019.56 1019.85 1020.14 1021.03 1022.63 1023.39 1023.77 1023.77 1023.69 1023.47 1023.39 1023.09 1022.80
1009.62 1010.56 1011.12 1011.92 1012.64 1013.28 1013.71 1014.17 1014.64 1015.14 1015.64 1015.93 1016.14 1016.48 1016.61 1016.62 1016.79 1016.77 1016.81 1017.02 1017.14 1017.45 1017.70 1017.84 1018.15 1018.42 1018.61 1018.79 1018.93 1019.11 1019.06 1019.40 1019.73 1020.27 1021.71 1023.03 1023.88 1024.24 1024.16 1024.02 1023.82 1023.85 1023.48
Thickness
5782 5780 5778 5777 5777 5779 5781 5781 5781 5780 5778 5777 5778 5779 5778 5777 5775 5774 5774 5774 5774 5774 5773 5772 5770 5770 5769 5768 5768 5767 5765 5762 5759 5756 5751 5749 5750 5749 5751 5751 5747 5745 5744
5788 5782 5778 5777 5777 5778 5780 5781 5781 5780 5779 5778 5780 5781 5780 5778 5776 5776 5776 5775 5774 5773 5773 5772 5772 5771 5770 5771 5770 5768 5764 5763 5760 5755 5750 5748 5748 5746 5746 5746 5743 5743 5741
5788 5784 5780 5778 5777 5778 5780 5780 5780 5780 5781 5781 5781 5782 5781 5779 5779 5779 5779 5777 5775 5776 5774 5774 5775 5773 5774 5774 5772 5770 5767 5763 5761 5760 5754 5749 5748 5748 5746 5744 5740 5740 5738
5789 5785 5781 5779 5778 5778 5779 5780 5780 5780 5780 5782 5783 5782 5781 5782 5782 5781 5781 5779 5779 5779 5778 5778 5776 5775 5776 5777 5775 5774 5771 5767 5763 5761 5756 5751 5749 5749 5746 5745 5742 5738 5734
5791 5785 5782 5781 5780 5779 5779 5779 5780 5780 5781 5782 5784 5784 5783 5784 5784 5783 5783 5781 5783 5783 5781 5781 5780 5779 5779 5779 5779 5778 5775 5770 5767 5764 5760 5756 5753 5752 5750 5749 5745 5739 5735
5791 5787 5785 5782 5782 5781 5781 5780 5780 5780 5781 5783 5784 5784 5784 5786 5786 5785 5784 5786 5786 5785 5785 5784 5784 5783 5783 5782 5782 5781 5777 5772 5768 5766 5763 5761 5758 5756 5755 5752 5749 5742 5738
5792 5788 5787 5784 5782 5781 5780 5780 5781 5781 5782 5783 5784 5784 5786 5787 5787 5788 5788 5790 5790 5790 5788 5786 5787 5787 5785 5784 5784 5783 5779 5775 5772 5770 5768 5765 5762 5761 5759 5755 5752 5746 5742
5793 5790 5788 5786 5784 5783 5782 5780 5781 5782 5783 5783 5783 5785 5788 5788 5789 5790 5790 5792 5793 5794 5791 5789 5789 5789 5786 5786 5784 5782 5780 5778 5775 5773 5771 5769 5766 5763 5761 5758 5753 5749 5745
5791 5789 5789 5787 5785 5783 5782 5782 5782 5782 5783 5783 5784 5787 5789 5789 5792 5794 5796 5794 5795 5798 5799 5796 5793 5789 5786 5785 5784 5782 5782 5780 5777 5775 5773 5771 5769 5767 5764 5760 5756 5752 5748
5791 5790 5789 5787 5786 5784 5783 5782 5782 5783 5783 5783 5784 5788 5789 5790 5792 5795 5796 5796 5796 5801 5801 5798 5795 5791 5787 5784 5782 5782 5782 5782 5779 5776 5776 5774 5771 5769 5765 5761 5757 5753 5749
5791 5791 5790 5788 5785 5783 5782 5782 5782 5782 5783 5784 5784 5786 5790 5792 5793 5795 5796 5795 5796 5800 5801 5798 5796 5793 5790 5785 5783 5781 5781 5780 5779 5778 5777 5776 5773 5769 5765 5761 5756 5753 5749
5790 5791 5790 5788 5786 5783 5782 5783 5781 5780 5781 5784 5784 5786 5789 5792 5793 5795 5796 5795 5797 5798 5798 5799 5797 5795 5792 5787 5783 5781 5779 5779 5779 5777 5775 5774 5771 5768 5764 5761 5757 5754 5752
5794 5793 5792 5790 5788 5786 5785 5784 5782 5779 5779 5782 5784 5786 5789 5790 5794 5794 5796 5797 5796 5799 5797 5797 5796 5795 5792 5787 5781 5779 5779 5779 5777 5775 5773 5771 5769 5767 5763 5760 5756 5755 5753
5794 5794 5795 5793 5790 5787 5786 5785 5783 5780 5779 5781 5783 5785 5787 5789 5791 5792 5793 5795 5796 5797 5796 5796 5796 5794 5790 5786 5781 5778 5779 5778 5777 5774 5770 5769 5766 5764 5762 5759 5756 5755 5752
5797 5797 5796 5795 5792 5791 5788 5787 5784 5782 5780 5779 5780 5782 5784 5787 5788 5790 5791 5793 5795 5795 5795 5795 5795 5793 5789 5785 5780 5777 5775 5774 5772 5771 5769 5769 5766 5763 5762 5759 5756 5753 5752
5804 5803 5801 5798 5796 5795 5792 5789 5786 5783 5781 5779 5779 5779 5781 5785 5786 5788 5789 5790 5792 5793 5793 5794 5792 5792 5787 5784 5780 5777 5774 5772 5768 5768 5767 5766 5764 5762 5760 5757 5755 5753 5752
5808 5807 5804 5800 5798 5796 5795 5792 5788 5786 5782 5780 5780 5779 5780 5782 5784 5786 5787 5789 5791 5792 5792 5791 5790 5790 5786 5782 5778 5776 5773 5771 5767 5764 5764 5762 5761 5760 5757 5755 5753 5750 5749
5811 5807 5805 5801 5798 5796 5795 5793 5790 5787 5785 5783 5780 5781 5780 5780 5783 5784 5786 5787 5789 5790 5791 5789 5788 5785 5783 5781 5778 5773 5771 5769 5767 5763 5761 5759 5758 5756 5754 5753 5751 5748 5746
5817 5810 5805 5803 5798 5795 5793 5792 5790 5788 5784 5784 5781 5780 5778 5780 5782 5784 5784 5785 5786 5787 5788 5787 5785 5784 5780 5778 5776 5772 5769 5766 5765 5763 5759 5757 5754 5752 5750 5749 5748 5745 5744
5822 5814 5808 5803 5799 5794 5790 5787 5786 5785 5784 5783 5783 5782 5779 5782 5782 5784 5783 5784 5785 5785 5784 5785 5782 5781 5779 5777 5775 5770 5768 5764 5762 5760 5758 5754 5751 5750 5748 5745 5743 5742 5742
5822 5815 5810 5804 5800 5795 5790 5785 5782 5780 5782 5782 5782 5782 5781 5782 5782 5784 5782 5783 5784 5784 5781 5782 5779 5777 5773 5776 5771 5766 5763 5761 5758 5756 5755 5751 5747 5746 5744 5742 5740 5740 5739
5826 5820 5813 5809 5804 5800 5794 5791 5788 5786 5786 5784 5783 5782 5780 5780 5780 5780 5780 5780 5783 5780 5779 5778 5778 5773 5772 5774 5766 5763 5752 5753 5754 5751 5748 5747 5744 5744 5741 5739 5737 5736 5736
5831 5825 5819 5814 5808 5804 5798 5792 5788 5786 5785 5782 5780 5781 5780 5779 5779 5779 5779 5778 5778 5778 5777 5777 5776 5775 5769 5771 5773 5768 5754 5747 5748 5749 5744 5742 5741 5739 5737 5738 5736 5734 5733
5837 5833 5826 5818 5811 5807 5801 5793 5788 5784 5780 5784 5783 5782 5781 5779 5777 5777 5777 5776 5776 5775 5775 5777 5777 5775 5773 5767 5770 5772 5773 5766 5748 5739 5742 5739 5738 5736 5734 5736 5735 5734 5732
5841 5836 5831 5820 5813 5809 5804 5800 5793 5786 5785 5787 5784 5781 5779 5778 5777 5775 5775 5774 5775 5774 5775 5776 5775 5775 5775 5772 5771 5769 5769 5766 5763 5753 5738 5735 5734 5733 5731 5731 5731 5733 5734
5844 5837 5832 5823 5814 5809 5806 5802 5797 5792 5788 5784 5783 5779 5778 5777 5776 5775 5774 5775 5774 5773 5773 5775 5775 5775 5774 5774 5774 5771 5771 5767 5763 5760 5747 5737 5730 5728 5728 5727 5728 5728 5730